Record,Date/Time,10,Tamb(K),Rh(%),Pres(mb),Tir(K),Rain,Az(deg),El(deg),TkBB(K), Ch  22.234, Ch  23.034, Ch  23.834, Ch  26.234, Ch  30.000, Ch  51.248, Ch  52.280, Ch  53.848, Ch  54.940, Ch  56.660, Ch  57.288, Ch  58.800, Ch 
Record,Date/Time,40,Tamb(K),Rh(%),Pres(mb),Tir(K),Rain
Record,Date/Time,50,Az(deg),El(deg),TkBB(K), Ch  22.000, Ch  22.234, Ch  22.500, Ch  23.000, Ch  23.034, Ch  23.500, Ch  23.834, Ch  24.000, Ch  24.500, Ch  25.000, Ch  25.500, Ch  26.000, Ch  26.234, Ch  26.500, Ch  27.000, Ch  27.500, Ch  28.000, Ch  28.500, Ch  29.000, Ch  29.500, Ch  30.000, Ch  51.248, Ch  51.760, Ch  52.280, Ch  52.804, Ch  53.336, Ch  53.848, Ch  54.400, Ch  54.940, Ch  55.500, Ch  56.020, Ch  56.660, Ch  57.288, Ch  57.964, Ch  58.800, Ch 
Record,Date/Time,80,ID,SNR,Tamb(K),Rh(%),Pres(mb),Tir(K),Rain,Az(deg),El(deg),TkBB(K), Ch  22.234, Ch  23.034, Ch  23.834, Ch  26.234, Ch  30.000, Ch  51.248, Ch  52.280, Ch  53.848, Ch  54.940, Ch  56.660, Ch  57.288, Ch  58.800, Ch 
     1,07/04/18 00:00:37,41, 288.8430,  79.1300,1012.2020, 223.4700,1
     2,07/04/18 00:01:14,51,  0.00, 19.80,304.478, 80.242, 82.951, 83.237, 81.839,, 77.293, 75.023, 73.467, 68.795, 63.688, 60.844, 56.556,,, 54.207,, 51.671,, 50.956,, 52.239,223.795,242.428,261.588,276.744,285.655,288.309,288.514,287.989,287.547,286.176,287.153,285.894,287.250,287.709,
     3,07/04/18 00:01:33,51,  0.00, 90.00,304.476, 32.656, 33.940, 34.023, 33.833,, 31.866, 30.538, 30.307, 28.999, 26.550, 25.788, 23.959,,, 23.101,, 21.973,, 22.525,, 22.598,114.556,132.619,157.898,190.136,226.550,259.501,279.863,286.701,287.605,285.798,286.581,283.394,285.781,285.797,
     4,07/04/18 00:01:52,51,  0.00,160.20,304.499, 71.372, 74.519, 74.514, 73.059,, 69.114, 66.125, 65.066, 60.681, 56.899, 53.033, 48.977,,, 47.132,, 44.515,, 44.481,, 45.075,210.682,230.880,253.043,271.761,283.475,287.734,288.841,287.557,287.152,286.394,286.799,285.113,286.628,287.273,
     5,07/04/18 00:02:15,41, 288.6200,  80.9200,1012.1820, 222.8000,1
     6,07/04/18 00:02:52,51,  0.00, 19.80,304.499, 80.816, 83.276, 83.076, 81.641,, 77.553, 75.200, 73.296, 68.692, 63.475, 60.387, 56.497,,, 54.094,, 52.039,, 51.181,, 52.988,223.936,242.087,261.731,277.211,285.650,288.641,288.432,287.909,287.692,286.562,287.081,285.138,287.094,286.655,
     7,07/04/18 00:03:11,51,  0.00, 90.00,304.456, 33.264, 33.943, 34.201, 34.029,, 31.807, 30.631, 30.129, 28.439, 26.086, 24.810, 23.516,,, 23.012,, 22.163,, 22.559,, 22.770,114.954,132.709,158.203,190.115,226.475,259.182,279.448,286.388,288.023,286.375,286.396,283.096,285.576,285.276,
     8,07/04/18 00:03:30,51,  0.00,160.20,304.462, 71.848, 74.972, 74.416, 72.796,, 69.357, 66.586, 65.138, 60.606, 56.050, 52.725, 49.797,,, 47.068,, 45.252,, 44.318,, 45.267,210.640,230.319,252.797,271.456,283.194,287.619,288.324,287.620,286.876,286.074,286.504,284.437,286.379,286.660,
     9,07/04/18 00:03:54,41, 288.5620,  81.3700,1012.1520, 223.3900,1
    10,07/04/18 00:04:31,51,  0.00, 19.80,304.389, 80.074, 83.590, 82.633, 81.021,, 77.178, 74.891, 73.184, 68.676, 63.591, 60.279, 56.499,,, 54.022,, 51.899,, 51.220,, 52.894,223.688,242.088,261.992,277.162,285.955,288.976,288.401,288.340,287.587,286.812,287.165,285.293,287.099,287.892,
    11,07/04/18 00:04:49,51,  0.00, 90.00,304.456, 33.227, 34.762, 34.656, 33.688,, 32.266, 31.563, 30.962, 29.321, 27.127, 25.965, 24.497,,, 23.343,, 22.622,, 22.636,, 23.547,114.905,132.708,157.779,190.230,226.835,259.607,279.695,287.336,287.636,285.912,286.153,282.925,286.008,285.792,
    12,07/04/18 00:05:08,51,  0.00,160.20,304.397, 72.213, 75.347, 74.844, 72.879,, 69.285, 66.790, 65.344, 61.367, 57.078, 53.264, 49.780,,, 47.076,, 45.317,, 44.359,, 45.853,211.185,230.946,252.955,271.664,283.573,287.877,288.250,288.188,287.169,286.289,287.017,285.260,286.930,287.418,
    13,07/04/18 00:05:32,41, 288.7450,  82.2700,1012.1540, 223.0600,1
    14,07/04/18 00:06:09,51,  0.00, 19.80,304.384, 80.078, 83.271, 82.676, 81.307,, 77.340, 75.251, 73.496, 68.672, 63.028, 60.296, 56.160,,, 54.241,, 51.695,, 51.294,, 52.764,223.879,242.329,261.702,277.311,285.889,288.497,288.273,287.905,287.780,287.189,286.576,285.798,287.056,287.388,
    15,07/04/18 00:06:27,51,  0.00, 90.00,304.379, 33.364, 34.490, 34.347, 34.143,, 32.318, 31.204, 30.818, 29.196, 26.671, 25.253, 24.008,,, 23.421,, 22.296,, 22.773,, 22.449,115.250,133.152,158.088,190.118,226.683,259.335,280.147,286.745,287.924,286.271,286.303,282.942,285.825,285.803,
    16,07/04/18 00:06:46,51,  0.00,160.20,304.386, 71.754, 74.884, 74.195, 73.256,, 69.313, 66.501, 65.240, 61.068, 55.943, 52.728, 49.518,,, 47.621,, 44.942,, 44.615,, 45.223,211.389,230.868,253.178,271.636,283.561,287.526,288.568,287.618,287.387,286.681,286.309,285.409,286.630,287.116,
    17,07/04/18 00:07:10,41, 288.5230,  82.1500,1012.1100, 222.2000,1
    18,07/04/18 00:07:47,51,  0.00, 19.80,304.337, 80.686, 83.780, 83.504, 81.352,, 77.596, 75.608, 73.546, 68.579, 63.729, 60.747, 56.597,,, 54.971,, 53.087,, 51.145,, 53.276,223.987,242.352,261.454,277.612,285.708,288.490,288.787,288.207,287.695,286.402,287.404,286.171,287.499,287.197,
    19,07/04/18 00:08:06,51,  0.00, 90.00,304.338, 33.658, 34.809, 34.462, 33.739,, 32.039, 31.160, 30.232, 29.347, 26.852, 25.398, 24.112,,, 23.786,, 23.059,, 22.791,, 23.053,115.324,133.155,157.954,190.867,226.577,259.127,279.894,286.606,287.971,285.649,286.537,283.339,285.879,286.059,
    20,07/04/18 00:08:24,51,  0.00,160.20,304.337, 72.444, 75.175, 74.658, 72.883,, 68.860, 66.474, 64.984, 60.785, 56.485, 52.541, 49.507,,, 47.540,, 45.830,, 44.558,, 46.114,211.027,230.940,252.512,272.373,283.669,287.612,288.518,287.462,287.012,285.808,286.957,285.287,286.704,286.907,
    21,07/04/18 00:08:48,41, 288.4250,  82.5900,1012.1160, 222.6600,1
    22,07/04/18 00:09:25,51,  0.00, 19.80,304.296, 80.357, 83.628, 83.479, 81.690,, 77.605, 75.446, 73.799, 69.061, 63.873, 61.126, 56.868,,, 54.495,, 52.536,, 51.746,, 52.781,224.319,242.551,261.717,277.484,285.929,288.206,288.021,287.922,287.002,286.415,287.361,285.323,286.875,287.892,
    23,07/04/18 00:09:44,51,  0.00, 90.00,304.331, 33.290, 34.506, 34.393, 34.055,, 31.954, 31.000, 30.603, 29.501, 27.160, 25.496, 24.085,,, 23.533,, 22.867,, 22.900,, 23.683,115.804,132.945,158.277,190.992,227.093,259.540,279.777,287.056,287.894,286.102,286.660,282.811,285.653,286.231,
    24,07/04/18 00:10:03,51,  0.00,160.20,304.309, 71.375, 74.516, 74.349, 72.441,, 68.731, 66.329, 65.214, 60.549, 56.104, 52.870, 49.312,,, 47.335,, 45.185,, 44.482,, 45.892,211.583,230.701,252.305,271.851,283.443,287.754,287.850,287.636,286.993,285.862,286.922,284.758,286.284,287.354,
    25,07/04/18 00:10:27,41, 288.3980,  82.2400,1012.1380, 223.0800,1
    26,07/04/18 00:11:04,51,  0.00, 19.80,304.272, 80.581, 83.102, 82.630, 81.443,, 77.171, 74.750, 73.403, 68.502, 63.791, 60.777, 56.310,,, 54.473,, 52.239,, 51.195,, 52.475,223.992,242.213,261.493,277.582,286.006,289.079,288.504,287.750,287.484,286.587,286.537,285.704,287.264,288.076,
    27,07/04/18 00:11:23,51,  0.00, 90.00,304.276, 33.826, 34.110, 34.458, 34.073,, 31.984, 31.041, 30.977, 29.057, 27.031, 25.825, 24.099,,, 23.591,, 22.945,, 22.973,, 23.199,115.443,133.355,158.470,190.898,226.854,259.814,279.922,286.640,287.422,285.748,286.193,283.515,285.883,286.177,
    28,07/04/18 00:11:42,51,  0.00,160.20,304.278, 71.938, 74.028, 73.856, 72.411,, 68.593, 65.936, 64.871, 60.419, 56.572, 52.847, 49.291,,, 46.876,, 44.826,, 44.543,, 45.620,210.926,230.759,252.729,272.311,283.482,287.815,288.425,287.216,287.105,285.628,286.263,285.354,286.406,287.479,
    29,07/04/18 00:12:05,41, 288.7300,  83.3000,1012.0780, 222.5300,1
    30,07/04/18 00:12:42,51,  0.00, 19.80,304.238, 80.305, 82.967, 83.042, 81.158,, 77.136, 74.707, 72.743, 68.307, 63.670, 60.231, 56.497,,, 54.564,, 52.537,, 51.332,, 52.982,224.012,242.658,261.723,277.480,285.859,288.122,288.319,288.048,288.104,286.960,286.826,285.321,287.453,287.137,
    31,07/04/18 00:13:01,51,  0.00, 90.00,304.260, 33.224, 34.520, 34.383, 34.287,, 31.753, 31.050, 30.186, 28.790, 26.936, 25.466, 24.303,,, 23.952,, 23.088,, 22.810,, 23.377,115.372,133.358,158.397,191.213,227.657,259.414,279.966,287.300,288.540,286.644,286.504,283.047,286.303,286.071,
    32,07/04/18 00:13:20,51,  0.00,160.20,304.240, 71.719, 74.257, 74.009, 72.384,, 68.605, 66.157, 64.479, 60.374, 55.993, 52.730, 48.930,,, 47.387,, 45.061,, 44.640,, 45.374,210.590,230.623,252.691,272.496,283.562,287.626,288.319,288.151,287.598,286.787,286.613,284.707,286.597,286.914,
    33,07/04/18 00:13:44,41, 288.6480,  81.1300,1012.0460, 222.9300,1
    34,07/04/18 00:14:21,51,  0.00, 19.80,304.255, 79.195, 82.455, 82.208, 80.231,, 76.954, 74.219, 72.524, 68.105, 63.000, 60.317, 55.782,,, 53.870,, 51.692,, 50.714,, 52.364,223.840,242.476,261.838,277.687,286.189,288.312,288.801,288.266,287.640,286.466,287.367,285.574,287.662,287.889,
    35,07/04/18 00:14:40,51,  0.00, 90.00,304.220, 32.927, 33.972, 34.051, 33.258,, 31.942, 30.915, 30.100, 29.154, 26.892, 25.790, 24.388,,, 23.670,, 22.793,, 22.877,, 23.171,115.706,133.753,158.709,191.006,227.439,259.290,279.786,287.147,288.235,285.818,286.946,282.999,285.973,286.028,
    36,07/04/18 00:14:59,51,  0.00,160.20,304.293, 70.995, 74.204, 73.852, 72.210,, 68.574, 66.232, 64.863, 60.381, 55.990, 53.181, 49.281,,, 47.228,, 45.047,, 44.865,, 45.221,211.135,230.822,253.030,272.377,284.246,287.656,288.380,288.165,287.187,285.603,286.978,285.139,287.208,287.072,
    37,07/04/18 00:15:22,41, 288.7880,  81.3800,1012.0400, 222.4400,1
    38,07/04/18 00:15:59,51,  0.00, 19.80,304.240, 79.255, 82.735, 82.008, 80.429,, 76.438, 74.178, 72.272, 68.035, 62.825, 59.902, 56.395,,, 54.270,, 51.739,, 51.220,, 52.699,223.584,242.305,261.660,277.336,286.090,288.770,288.939,288.079,288.079,286.679,286.574,285.819,286.537,287.245,
    39,07/04/18 00:16:18,51,  0.00, 90.00,304.231, 33.151, 34.214, 33.921, 33.706,, 31.895, 31.382, 30.365, 28.962, 26.475, 25.553, 24.161,,, 23.778,, 22.706,, 23.093,, 23.232,115.530,133.263,158.335,190.502,226.834,259.677,280.046,286.853,288.403,285.744,286.132,283.239,285.709,285.872,
    40,07/04/18 00:16:36,51,  0.00,160.20,304.265, 71.059, 74.303, 73.333, 72.354,, 68.538, 65.945, 64.440, 59.960, 55.272, 52.244, 49.105,,, 46.828,, 44.989,, 44.473,, 45.454,211.039,230.550,252.729,271.491,283.422,288.040,288.748,287.815,287.962,285.789,286.499,284.778,285.919,286.060,
    41,07/04/18 00:16:59,41, 288.8160,  81.9600,1011.9780, 222.8400,1
    42,07/04/18 00:17:36,51,  0.00, 19.80,304.262, 79.195, 82.425, 81.753, 80.700,, 76.616, 73.817, 72.437, 67.665, 62.488, 59.669, 56.156,,, 53.930,, 51.687,, 50.951,, 52.034,223.736,242.361,261.381,277.542,285.964,288.522,288.017,287.789,287.510,286.651,286.990,285.394,287.295,287.546,
    43,07/04/18 00:17:55,51,  0.00, 90.00,304.275, 33.638, 34.580, 34.091, 34.250,, 32.264, 31.307, 30.496, 29.197, 27.188, 26.297, 24.276,,, 24.065,, 22.920,, 23.403,, 23.550,115.553,133.771,158.338,190.679,226.959,259.669,279.747,286.880,287.902,286.391,286.577,283.544,286.025,286.161,
    44,07/04/18 00:18:14,51,  0.00,160.20,304.248, 70.758, 73.927, 73.328, 72.221,, 68.380, 65.878, 64.608, 60.274, 55.805, 52.442, 48.782,,, 46.607,, 44.731,, 43.801,, 45.256,211.074,231.077,252.741,272.122,283.637,287.749,288.100,287.871,286.998,286.127,286.709,284.999,286.728,287.179,
    45,07/04/18 00:18:38,41, 288.8550,  81.4200,1012.0040, 222.7900,1
    46,07/04/18 00:19:14,51,  0.00, 19.80,304.221, 78.989, 82.415, 82.068, 80.347,, 76.346, 73.900, 72.500, 67.656, 62.897, 60.163, 55.760,,, 53.747,, 51.643,, 50.884,, 52.399,223.553,242.207,261.774,277.677,286.263,288.869,288.726,288.294,288.137,286.254,287.398,285.753,286.633,287.116,
    47,07/04/18 00:19:33,51,  0.00, 90.00,304.230, 32.928, 34.583, 34.388, 33.699,, 31.587, 30.691, 30.348, 28.696, 27.376, 26.014, 23.807,,, 23.469,, 22.564,, 22.491,, 23.315,114.976,133.270,158.463,191.008,226.742,259.823,280.413,287.277,287.799,286.573,287.181,283.507,286.202,285.852,
    48,07/04/18 00:19:52,51,  0.00,160.20,304.279, 70.427, 73.742, 73.093, 71.429,, 67.960, 65.184, 64.040, 59.565, 55.630, 52.329, 48.616,,, 46.667,, 44.268,, 43.827,, 44.667,210.775,230.623,252.904,272.512,283.440,288.154,289.101,288.005,287.485,286.508,286.823,285.255,286.587,287.076,
    49,07/04/18 00:20:16,41, 288.8550,  80.7800,1011.9540, 222.4600,1
    50,07/04/18 00:20:53,51,  0.00, 19.80,304.208, 79.077, 82.033, 81.659, 80.235,, 76.710, 74.089, 72.140, 67.973, 62.985, 59.698, 56.238,,, 54.072,, 51.596,, 51.167,, 52.893,223.928,242.278,261.143,277.145,285.655,288.553,288.526,288.350,287.587,287.241,287.130,285.882,287.592,287.516,
    51,07/04/18 00:21:12,51,  0.00, 90.00,304.242, 32.927, 33.877, 34.143, 33.220,, 31.683, 30.104, 29.768, 28.575, 26.769, 25.587, 24.011,,, 23.616,, 22.633,, 22.956,, 22.878,115.799,133.397,158.060,190.871,227.019,259.128,279.917,287.223,287.895,286.459,286.464,283.426,286.619,286.082,
    52,07/04/18 00:21:30,51,  0.00,160.20,304.249, 70.507, 73.140, 73.141, 71.102,, 68.287, 65.181, 63.771, 59.854, 55.644, 52.210, 48.633,,, 46.899,, 44.488,, 44.254,, 44.937,211.102,230.824,252.512,272.086,283.160,287.486,288.568,288.338,287.611,286.392,286.558,285.267,286.975,286.276,
    53,07/04/18 00:21:54,41, 288.7180,  81.8700,1011.9940, 222.1100,1
    54,07/04/18 00:22:31,51,  0.00, 19.80,304.213, 79.608, 82.424, 82.076, 80.396,, 76.594, 74.299, 72.290, 68.013, 62.883, 60.284, 55.905,,, 54.045,, 52.048,, 51.131,, 52.523,224.056,242.142,261.709,276.853,285.904,288.455,287.978,288.383,288.091,286.441,287.013,285.707,286.975,287.216,
    55,07/04/18 00:22:50,51,  0.00, 90.00,304.223, 32.614, 33.992, 33.825, 33.371,, 31.249, 30.752, 29.807, 28.654, 26.491, 25.361, 23.919,,, 23.481,, 22.479,, 22.561,, 23.148,116.130,133.607,158.656,190.541,226.943,259.586,279.662,287.774,288.311,286.170,286.461,283.188,286.198,285.556,
    56,07/04/18 00:23:08,51,  0.00,160.20,304.226, 70.533, 73.371, 72.987, 71.303,, 67.861, 65.212, 63.521, 59.848, 55.410, 52.245, 48.610,,, 46.700,, 44.562,, 44.024,, 45.329,211.360,230.721,252.909,271.758,283.796,288.120,288.963,288.452,287.622,286.268,287.038,285.014,286.859,286.935,
    57,07/04/18 00:23:32,41, 288.6590,  81.9200,1011.9640, 222.3500,1
    58,07/04/18 00:24:09,51,  0.00, 19.80,304.216, 79.356, 82.849, 82.326, 80.889,, 76.570, 74.505, 72.387, 68.151, 63.313, 60.467, 56.244,,, 54.073,, 51.560,, 50.995,, 52.009,224.026,242.372,261.595,277.120,285.532,288.571,287.897,288.252,287.753,286.023,286.558,285.844,286.880,287.565,
    59,07/04/18 00:24:28,51,  0.00, 90.00,304.200, 32.627, 34.064, 34.175, 33.588,, 31.606, 30.605, 29.920, 28.945, 26.849, 25.368, 24.299,,, 23.615,, 22.703,, 23.124,, 23.602,115.397,133.627,158.434,190.796,226.941,260.011,280.007,287.222,287.969,286.086,286.227,283.840,286.254,286.517,
    60,07/04/18 00:24:47,51,  0.00,160.20,304.206, 69.949, 73.566, 72.715, 71.442,, 67.694, 65.364, 63.881, 59.662, 55.464, 51.774, 48.928,,, 46.590,, 44.167,, 43.814,, 44.927,211.033,231.004,252.559,271.591,283.310,287.748,288.689,287.789,287.402,286.259,286.033,285.296,286.950,287.575,
    61,07/04/18 00:25:10,41, 288.5930,  82.3300,1012.0060, 222.5100,1
    62,07/04/18 00:25:47,51,  0.00, 19.80,304.188, 79.456, 82.981, 82.571, 80.982,, 76.818, 74.116, 72.635, 68.115, 63.648, 60.449, 56.240,,, 54.315,, 51.957,, 51.028,, 53.205,223.936,242.704,261.679,277.232,285.983,288.484,288.431,288.303,287.017,286.264,286.944,285.573,287.316,287.227,
    63,07/04/18 00:26:06,51,  0.00, 90.00,304.168, 33.042, 34.225, 34.108, 33.926,, 32.273, 30.814, 30.451, 29.021, 26.752, 25.968, 24.589,,, 24.183,, 23.150,, 22.988,, 23.616,115.647,133.475,158.607,190.868,227.416,259.728,279.883,287.134,288.052,286.438,286.889,283.355,286.268,285.619,
    64,07/04/18 00:26:25,51,  0.00,160.20,304.178, 69.926, 73.215, 72.399, 70.974,, 67.470, 64.611, 63.497, 59.297, 55.469, 52.038, 48.558,,, 46.434,, 44.443,, 43.676,, 44.934,210.902,230.992,252.535,271.609,283.375,287.601,288.265,287.870,286.856,286.723,287.021,285.015,286.802,286.924,
    65,07/04/18 00:26:49,41, 288.7300,  80.9400,1012.0060, 222.1300,1
    66,07/04/18 00:27:26,51,  0.00, 19.80,304.183, 79.149, 82.571, 82.479, 80.489,, 76.772, 74.131, 72.910, 67.997, 62.987, 60.376, 56.162,,, 54.344,, 52.080,, 50.632,, 52.704,223.573,242.273,261.452,277.470,285.669,288.188,288.062,288.029,287.690,286.649,287.344,285.830,286.825,287.203,
    67,07/04/18 00:27:44,51,  0.00, 90.00,304.220, 32.977, 34.608, 34.282, 33.713,, 31.886, 30.757, 30.546, 28.539, 26.964, 25.898, 24.416,,, 24.054,, 23.037,, 22.846,, 23.610,115.703,133.810,158.981,190.894,227.216,259.371,279.816,286.764,288.227,286.574,286.729,283.204,285.423,285.639,
    68,07/04/18 00:28:03,51,  0.00,160.20,304.231, 69.428, 73.327, 72.896, 71.168,, 67.555, 64.945, 63.352, 59.405, 55.029, 51.736, 48.256,,, 46.936,, 44.534,, 43.458,, 45.146,210.442,230.998,252.946,271.742,283.742,287.689,288.340,287.652,287.411,286.569,286.905,285.044,286.189,286.829,
    69,07/04/18 00:28:27,41, 288.3550,  81.8100,1012.0080, 222.5500,1
    70,07/04/18 00:29:04,51,  0.00, 19.80,304.144, 79.566, 82.653, 82.645, 80.881,, 76.836, 74.562, 73.416, 68.421, 63.872, 60.993, 56.497,,, 54.465,, 52.234,, 51.392,, 52.970,223.956,242.771,261.641,277.586,286.145,288.749,288.310,288.509,287.213,286.127,286.908,285.073,287.468,287.027,
    71,07/04/18 00:29:23,51,  0.00, 90.00,304.150, 33.395, 34.721, 34.606, 34.153,, 32.132, 31.220, 30.790, 29.449, 27.468, 26.346, 24.982,,, 24.072,, 22.946,, 22.922,, 23.932,116.083,134.037,159.308,191.258,227.505,260.308,280.856,287.314,287.976,285.800,286.588,282.720,286.124,285.569,
    72,07/04/18 00:29:42,51,  0.00,160.20,304.153, 69.517, 72.994, 72.329, 71.133,, 67.106, 64.474, 63.532, 59.245, 55.022, 51.976, 48.238,,, 46.965,, 44.572,, 44.087,, 45.493,210.668,231.045,253.011,272.013,283.952,288.079,289.311,288.370,287.760,286.000,286.875,284.839,286.986,286.327,
    73,07/04/18 00:30:06,41, 288.3660,  83.3700,1011.9440, 222.2200,1
    74,07/04/18 00:30:43,51,  0.00, 19.80,304.125, 79.636, 82.769, 82.812, 81.066,, 77.651, 74.692, 73.521, 68.622, 63.674, 61.228, 56.660,,, 55.100,, 52.311,, 51.880,, 53.408,224.043,242.580,261.905,276.991,285.870,288.504,287.953,287.589,287.260,287.263,287.200,286.042,287.109,287.521,
    75,07/04/18 00:31:02,51,  0.00, 90.00,304.115, 33.221, 34.387, 34.447, 34.261,, 32.563, 31.409, 30.901, 29.523, 27.415, 26.348, 24.312,,, 24.496,, 23.133,, 23.668,, 24.408,116.272,134.066,158.825,190.965,227.481,259.726,279.751,286.416,288.021,286.604,286.867,283.789,285.803,285.957,
    76,07/04/18 00:31:21,51,  0.00,160.20,304.111, 69.432, 72.354, 72.267, 70.927,, 67.267, 64.274, 63.609, 59.100, 55.066, 51.890, 48.645,,, 46.667,, 44.182,, 44.005,, 45.136,211.247,230.940,253.213,272.072,283.637,287.915,288.339,287.687,287.012,286.329,286.991,285.298,286.873,287.055,
    77,07/04/18 00:31:45,41, 288.5070,  83.2600,1011.9340, 222.4000,1
    78,07/04/18 00:32:22,51,  0.00, 19.80,304.058, 80.155, 83.190, 82.785, 80.822,, 77.100, 74.893, 72.895, 68.394, 63.030, 60.919, 56.874,,, 54.791,, 52.780,, 51.206,, 52.746,224.367,242.007,261.586,276.989,285.698,288.117,287.427,287.969,287.751,286.442,287.410,286.134,286.788,287.034,
    79,07/04/18 00:32:41,51,  0.00, 90.00,304.119, 33.881, 34.831, 34.112, 34.219,, 32.314, 31.587, 30.924, 29.056, 27.114, 25.957, 25.297,,, 24.121,, 23.381,, 23.475,, 24.009,116.357,133.980,159.210,191.026,227.305,259.584,279.761,287.270,288.342,285.923,287.208,284.061,285.790,285.645,
    80,07/04/18 00:33:00,51,  0.00,160.20,304.106, 69.760, 72.726, 72.254, 70.744,, 67.129, 65.019, 63.212, 59.068, 54.685, 52.255, 48.816,,, 46.484,, 44.693,, 43.260,, 45.579,210.874,230.394,252.753,271.586,283.585,287.402,288.240,287.775,287.444,286.186,287.060,285.673,286.206,287.162,
    81,07/04/18 00:33:24,41, 288.4250,  82.1200,1011.9440, 222.7300,1
    82,07/04/18 00:34:01,51,  0.00, 19.80,304.044, 79.294, 83.114, 82.656, 80.786,, 77.119, 74.107, 73.059, 68.379, 63.403, 60.695, 56.462,,, 54.405,, 52.322,, 51.160,, 53.089,224.358,242.742,262.118,277.360,285.836,288.283,287.757,288.358,287.559,285.933,286.893,285.540,287.216,287.139,
    83,07/04/18 00:34:20,51,  0.00, 90.00,304.079, 32.879, 34.717, 34.137, 33.664,, 31.868, 30.386, 30.472, 29.155, 27.182, 25.642, 24.295,,, 24.084,, 22.892,, 22.952,, 23.571,116.426,134.560,158.966,191.108,227.633,260.021,279.979,287.226,288.025,285.954,286.692,283.512,286.448,285.799,
    84,07/04/18 00:34:39,51,  0.00,160.20,304.105, 69.273, 72.473, 71.390, 70.110,, 66.727, 63.815, 63.398, 59.251, 55.065, 51.490, 48.021,,, 46.442,, 43.978,, 43.680,, 44.728,211.065,230.952,252.886,271.965,283.604,287.890,288.106,287.683,287.248,285.670,286.477,284.865,286.943,286.426,
    85,07/04/18 00:35:03,41, 288.3660,  82.3000,1011.9020, 222.3800,1
    86,07/04/18 00:35:40,51,  0.00, 19.80,304.064, 80.083, 82.955, 82.453, 80.703,, 77.208, 75.129, 73.412, 68.977, 63.746, 61.296, 56.966,,, 54.789,, 52.759,, 52.191,, 53.743,224.332,242.867,261.198,276.985,285.813,288.641,287.713,288.016,287.612,286.048,286.880,285.545,287.561,286.568,
    87,07/04/18 00:35:59,51,  0.00, 90.00,304.065, 33.209, 34.634, 34.093, 33.626,, 32.312, 31.775, 31.024, 29.390, 27.536, 26.465, 24.533,,, 24.185,, 23.394,, 23.769,, 24.610,116.680,134.484,158.997,191.504,227.718,259.972,280.007,286.939,288.212,286.594,286.389,283.237,286.370,285.782,
    88,07/04/18 00:36:18,51,  0.00,160.20,304.055, 69.357, 73.025, 71.858, 70.493,, 67.197, 64.922, 63.394, 59.077, 55.378, 52.283, 48.074,,, 46.602,, 44.458,, 44.037,, 45.159,211.150,231.133,253.007,271.768,283.740,287.898,288.656,287.810,287.326,285.872,286.843,285.145,287.341,286.651,
    89,07/04/18 00:36:42,41, 288.3660,  83.3500,1011.8700, 222.4200,1
    90,07/04/18 00:37:19,51,  0.00, 19.80,304.013, 79.750, 82.840, 82.386, 80.437,, 76.901, 74.277, 72.950, 68.259, 63.595, 60.670, 56.582,,, 54.686,, 52.547,, 51.520,, 52.548,224.201,242.767,261.638,276.969,285.968,288.520,287.961,288.328,288.139,286.397,287.629,285.982,287.238,287.129,
    91,07/04/18 00:37:38,51,  0.00, 90.00,304.031, 33.022, 34.694, 33.719, 33.705,, 32.172, 30.846, 30.117, 29.623, 27.259, 26.254, 24.320,,, 24.435,, 23.358,, 23.524,, 23.142,116.846,134.654,159.412,191.638,227.777,259.930,280.150,287.276,288.528,285.943,287.128,283.666,285.685,285.381,
    92,07/04/18 00:37:57,51,  0.00,160.20,304.031, 69.793, 72.796, 71.588, 70.665,, 66.931, 64.179, 63.054, 58.902, 54.694, 51.606, 48.284,,, 46.867,, 44.329,, 43.783,, 44.892,211.281,231.220,252.956,271.911,283.876,288.015,288.221,288.111,287.950,286.141,287.264,284.983,286.316,286.486,
    93,07/04/18 00:38:21,41, 288.3270,  82.9300,1011.9240, 222.3200,1
    94,07/04/18 00:38:58,51,  0.00, 19.80,303.971, 79.867, 82.951, 82.445, 80.784,, 77.115, 74.915, 73.565, 68.705, 63.518, 60.919, 56.619,,, 54.804,, 52.699,, 51.888,, 53.822,224.205,242.534,261.536,277.564,286.018,288.422,288.374,288.001,287.152,286.281,287.299,285.640,287.078,286.837,
    95,07/04/18 00:39:17,51,  0.00, 90.00,303.964, 33.397, 34.666, 34.140, 33.721,, 32.166, 31.380, 31.219, 29.717, 27.372, 26.224, 24.297,,, 24.410,, 23.390,, 23.350,, 24.042,116.466,134.396,159.258,191.471,227.506,259.608,279.894,287.497,288.117,286.114,286.534,283.482,285.941,285.584,
    96,07/04/18 00:39:35,51,  0.00,160.20,304.000, 69.623, 72.638, 72.380, 70.986,, 67.462, 64.771, 63.884, 59.586, 55.392, 52.592, 48.354,,, 46.875,, 44.835,, 44.020,, 45.588,211.098,230.876,252.978,272.000,283.515,287.873,288.070,288.017,286.862,286.385,286.922,285.646,286.908,286.923,
    97,07/04/18 00:39:59,41, 288.1750,  83.2600,1011.9940, 222.5400,1
    98,07/04/18 00:40:37,51,  0.00, 19.80,303.921, 79.899, 82.931, 82.540, 81.108,, 77.048, 75.148, 73.633, 68.534, 64.035, 60.903, 57.229,,, 54.872,, 52.792,, 51.774,, 53.784,224.356,242.653,261.835,276.996,285.806,288.476,287.994,287.274,287.703,286.255,287.258,285.943,287.172,287.747,